This demonstration page uses our WeatherBlox Daily Observations layout. Learn more.

40.92945, -100.16068

Hourly Observations for April 28, 2018

Temp ( °F °C ) Dew Point ( °F °C ) Humidity (%) Winds ( mph kmh ) Pressure ( in mb ) Visibility ( mi km ) Precip ( " mm )
12:15 am 00:15 Clear 46 7.8 35 1.4 64 64 NE 7 11 30.09 1019 10 16.0934 0 0
12:35 am 00:35 Clear 46 7.6 34 1.2 64 64 NE 9 15 30.09 1019 10 16.0934 0 0
12:55 am 00:55 Clear 46 8 34 1 62 62 ENE 10 17 30.09 1019 10 16.0934 0 0
1:15 am 01:15 Clear 46 8 33 0.5 59 59 ENE 9 15 30.09 1019 10 16.0934 0 0
1:35 am 01:35 Clear 45 7 33 0.5 64 64 ENE 8 13 30.12 1020 10 16.0934 0 0
1:55 am 01:55 Clear 44 6.5 33 0.3 65 65 ENE 9 15 30.15 1021 10 16.0934 0 0
2:15 am 02:15 Clear 44 6.4 32 0.1 64 64 ENE 7 11 30.15 1021 10 16.0934 0 0
2:35 am 02:35 Clear 42 5.5 32 0 68 68 ENE 7 11 30.15 1021 10 16.0934 0 0
2:55 am 02:55 Clear 40 4.5 32 0 73 73 NE 6 9 30.18 1022 10 16.0934 0 0
3:15 am 03:15 Clear 40 4.5 32 -0.1 72 72 ENE 6 9 30.18 1022 10 16.0934 0 0
3:35 am 03:35 Clear 41 4.8 31 -0.3 70 70 NE 5 7 30.15 1021 10 16.0934 0 0
3:55 am 03:55 Clear 39 3.9 31 -0.7 72 72 Calm 30.18 1022 10 16.0934 0 0
4:15 am 04:15 Clear 38 3.6 31 -0.7 74 74 Calm 30.18 1022 10 16.0934 0 0
4:35 am 04:35 Clear 38 3.1 31 -0.7 76 76 Calm 30.18 1022 10 16.0934 0 0
4:55 am 04:55 Clear 35 1.9 30 -1.2 80 80 WSW 3 6 30.21 1023 10 16.0934 0 0
5:15 am 05:15 Clear 36 2 30 -1 81 81 Calm 30.21 1023 10 16.0934 0 0
5:35 am 05:35 Clear 36 2.4 31 -0.8 80 80 Calm 30.21 1023 10 16.0934 0 0
5:55 am 05:55 Clear 34 1.2 29 -1.4 83 83 ENE 5 7 30.24 1024 10 16.0934 0 0
6:15 am 06:15 Clear 33 0.6 29 -1.5 86 86 NNE 5 7 30.24 1024 10 16.0934 0 0
6:35 am 06:35 Clear 33 0.5 29 -1.8 85 85 N 3 6 30.24 1024 10 16.0934 0 0
6:55 am 06:55 Sunny 32 0.2 29 -1.7 87 87 Calm 30.24 1024 10 16.0934 0 0
7:15 am 07:15 Sunny 34 1 29 -1.5 84 84 Calm 30.24 1024 10 16.0934 0 0
7:35 am 07:35 Sunny 34 1.3 31 -0.8 86 86 ENE 3 6 30.24 1024 10 16.0934 0 0
7:55 am 07:55 Sunny 39 3.7 32 0.2 78 78 ENE 5 7 30.21 1023 10 16.0934 0 0
8:15 am 08:15 Sunny 42 5.4 34 1 74 74 E 5 7 30.21 1023 10 16.0934 0 0
8:35 am 08:35 Sunny 45 7.1 34 1.2 66 66 E 8 13 30.21 1023 10 16.0934 0 0
8:55 am 08:55 Sunny 46 8 34 1.3 63 63 ESE 9 15 30.21 1023 10 16.0934 0 0
9:15 am 09:15 Sunny 48 9 35 1.8 61 61 E 10 17 30.18 1022 10 16.0934 0 0
9:35 am 09:35 Sunny 49 9.5 35 1.9 59 59 ESE 9 15 30.18 1022 10 16.0934 0 0
9:55 am 09:55 Sunny 50 10.1 36 2 57 57 ESE 10 17 30.18 1022 10 16.0934 0 0
10:15 am 10:15 Sunny 51 10.7 36 2.3 56 56 ESE 12 19 30.18 1022 10 16.0934 0 0
10:35 am 10:35 Sunny 53 11.4 37 2.5 55 55 ESE 12 19 30.18 1022 10 16.0934 0 0
10:55 am 10:55 Sunny 54 12.1 36 2.3 51 51 SE 9 15 30.15 1021 10 16.0934 0 0
11:15 am 11:15 Sunny 55 12.6 37 2.5 50 50 ESE 9 15 30.15 1021 10 16.0934 0 0
11:35 am 11:35 Sunny 56 13.2 36 2.1 47 47 ESE 9 15 30.15 1021 10 16.0934 0 0
11:55 am 11:55 Sunny 56 13.5 35 1.6 45 45 SSE 10 17 30.15 1021 10 16.0934 0 0
12:15 pm 12:15 Sunny 58 14.2 34 1.1 41 41 SE 8 13 30.15 1021 10 16.0934 0 0
12:35 pm 12:35 Sunny 58 14.5 34 1.2 41 41 ESE 9 15 30.15 1021 10 16.0934 0 0
12:55 pm 12:55 Sunny 60 15.4 34 1.1 38 38 SE 12 19 30.09 1019 10 16.0934 0 0
1:15 pm 13:15 Sunny 60 15.6 32 0.2 35 35 ESE 13 20 30.09 1019 10 16.0934 0 0
1:35 pm 13:35 Sunny 61 16.1 32 0.2 34 34 ESE 13 20 30.06 1018 10 16.0934 0 0
1:55 pm 13:55 Sunny 62 16.7 34 1 35 35 ESE 10 17 30.06 1018 10 16.0934 0 0
2:15 pm 14:15 Sunny 63 17.1 33 0.7 33 33 ESE 15 24 30.06 1018 10 16.0934 0 0
2:35 pm 14:35 Sunny 64 17.6 33 0.4 31 31 ESE 12 19 30.03 1017 10 16.0934 0 0
2:55 pm 14:55 Sunny 65 18.1 31 -0.5 29 29 SE 14 22 30.03 1017 10 16.0934 0 0
3:15 pm 15:15 Sunny 65 18.3 31 -0.5 28 28 SE 15 24 30 1016 10 16.0934 0 0
3:35 pm 15:35 Sunny 66 18.9 31 -0.5 27 27 SE 15 24 30 1016 10 16.0934 0 0
3:55 pm 15:55 Sunny 66 19.1 31 -0.8 26 26 SE 16 26 29.97 1015 10 16.0934 0 0
4:15 pm 16:15 Sunny 67 19.2 30 -1.1 25 25 SE 16 26 29.97 1015 10 16.0934 0 0
4:35 pm 16:35 Sunny 67 19.6 30 -1.1 25 25 ESE 17 28 29.97 1015 10 16.0934 0 0
4:55 pm 16:55 Sunny 68 20 31 -0.7 25 25 SE 18 30 29.97 1015 10 16.0934 0 0
5:15 pm 17:15 Sunny 68 20 29 -1.5 24 24 SE 17 28 29.97 1015 10 16.0934 0 0
5:35 pm 17:35 Sunny 68 20.1 29 -1.4 24 24 SE 13 20 29.97 1015 10 16.0934 0 0
5:55 pm 17:55 Sunny 68 20 30 -1.1 24 24 SSE 16 26 29.97 1015 10 16.0934 0 0
6:15 pm 18:15 Sunny 68 20 30 -1.2 24 24 SSE 15 24 29.97 1015 10 16.0934 0 0
6:35 pm 18:35 Sunny 68 19.8 29 -1.7 23 23 SE 15 24 29.97 1015 10 16.0934 0 0
6:55 pm 18:55 Sunny 67 19.5 29 -1.5 24 24 SE 17 28 29.97 1015 10 16.0934 0 0
7:15 pm 19:15 Sunny 66 19.1 30 -1 26 26 SE 14 22 29.97 1015 10 16.0934 0 0
7:35 pm 19:35 Sunny 65 18.6 31 -0.7 27 27 SE 16 26 29.97 1015 10 16.0934 0 0
7:55 pm 19:55 Sunny 64 17.8 31 -0.5 29 29 SSE 13 20 29.97 1015 10 16.0934 0 0
8:15 pm 20:15 Sunny 62 16.8 31 -0.3 31 31 SSE 12 19 29.97 1015 10 16.0934 0 0
8:35 pm 20:35 Clear 61 15.9 31 -0.4 33 33 SSE 12 19 30 1016 10 16.0934 0 0
8:55 pm 20:55 Clear 60 15.3 32 -0.2 35 35 SSE 12 19 30 1016 10 16.0934 0 0
9:15 pm 21:15 Clear 59 15.1 31 -0.6 34 34 SE 13 20 30 1016 10 16.0934 0 0
9:35 pm 21:35 Clear 58 14.5 32 -0.2 37 37 SE 13 20 30 1016 10 16.0934 0 0
9:55 pm 21:55 Clear 57 13.7 32 -0.2 39 39 SE 12 19 30 1016 10 16.0934 0 0
10:15 pm 22:15 Clear 55 13 32 -0.2 41 41 SE 14 22 30.03 1017 10 16.0934 0 0
10:35 pm 22:35 Clear 55 12.5 32 -0.1 42 42 SE 13 20 30.03 1017 10 16.0934 0 0
10:55 pm 22:55 Clear 54 12.3 32 0 43 43 SE 13 20 30.03 1017 10 16.0934 0 0
11:15 pm 23:15 Clear 54 12.1 32 0 44 44 SE 12 19 30.03 1017 10 16.0934 0 0
11:35 pm 23:35 Clear 54 12 32 0 44 44 SE 14 22 30.03 1017 10 16.0934 0 0
11:55 pm 23:55 Clear 54 12 32 0 44 44 SE 14 22 30.03 1017 10 16.0934 0 0

Powered by AerisWeather